Year,Month,Day,Hour,Minute,Value (Times are PST for temperature in C)
2014,06,01,00,00,15.50
2014,06,01,00,01,15.50
2014,06,01,00,02,15.50
2014,06,01,00,03,15.50
2014,06,01,00,04,15.50
2014,06,01,00,05,15.50
2014,06,01,00,06,15.50
2014,06,01,00,07,15.40
2014,06,01,00,08,15.40
2014,06,01,00,09,15.40
2014,06,01,00,10,15.40
2014,06,01,00,11,15.40
2014,06,01,00,12,15.40
2014,06,01,00,13,15.40
2014,06,01,00,14,15.40
2014,06,01,00,15,15.30
2014,06,01,00,16,15.30
2014,06,01,00,17,15.30
2014,06,01,00,18,15.30
2014,06,01,00,19,15.30
2014,06,01,00,20,15.20
2014,06,01,00,21,15.20
2014,06,01,00,22,15.20
2014,06,01,00,23,15.20
2014,06,01,00,24,15.20
2014,06,01,00,25,15.20
2014,06,01,00,26,15.20
2014,06,01,00,27,15.10
2014,06,01,00,28,15.10
2014,06,01,00,29,15.10
2014,06,01,00,30,15.10
2014,06,01,00,31,15.00
2014,06,01,00,32,15.00
2014,06,01,00,33,15.00
2014,06,01,00,34,14.90
2014,06,01,00,35,14.90
2014,06,01,00,36,14.90
2014,06,01,00,37,14.90
2014,06,01,00,38,14.90
2014,06,01,00,39,14.80
2014,06,01,00,40,14.80
2014,06,01,00,41,14.80
2014,06,01,00,42,14.80
2014,06,01,00,43,14.70
2014,06,01,00,44,14.70
2014,06,01,00,45,14.70
2014,06,01,00,46,14.70
2014,06,01,00,47,14.70
2014,06,01,00,48,14.60
2014,06,01,00,49,14.60
2014,06,01,00,50,14.60
2014,06,01,00,51,14.60
2014,06,01,00,52,14.50
2014,06,01,00,53,14.50
2014,06,01,00,54,14.40
2014,06,01,00,55,14.40
2014,06,01,00,56,14.40
2014,06,01,00,57,14.40
2014,06,01,00,58,14.40
2014,06,01,00,59,14.30
2014,06,01,01,00,14.30
2014,06,01,01,01,14.30
2014,06,01,01,02,14.30
2014,06,01,01,03,14.20
2014,06,01,01,04,14.20
2014,06,01,01,05,14.10
2014,06,01,01,06,14.10
2014,06,01,01,07,14.10
2014,06,01,01,08,14.10
2014,06,01,01,09,14.10
2014,06,01,01,10,14.10
2014,06,01,01,11,14.10
2014,06,01,01,12,14.10
2014,06,01,01,13,14.00
2014,06,01,01,14,14.00
2014,06,01,01,15,14.00
2014,06,01,01,16,14.00
2014,06,01,01,17,13.90
2014,06,01,01,18,13.90
2014,06,01,01,19,13.90
2014,06,01,01,20,13.90
2014,06,01,01,21,13.80
2014,06,01,01,22,13.80
2014,06,01,01,23,13.80
2014,06,01,01,24,13.80
2014,06,01,01,25,13.80
2014,06,01,01,26,13.70
2014,06,01,01,27,13.70
2014,06,01,01,28,13.70
2014,06,01,01,29,13.60
2014,06,01,01,30,13.60
2014,06,01,01,31,13.60
2014,06,01,01,32,13.50
2014,06,01,01,33,13.50
2014,06,01,01,34,13.40
2014,06,01,01,35,13.40
2014,06,01,01,36,13.40
2014,06,01,01,37,13.40
2014,06,01,01,38,13.40
2014,06,01,01,39,13.30
2014,06,01,01,40,13.30
2014,06,01,01,41,13.20
2014,06,01,01,42,13.20
2014,06,01,01,43,13.20
2014,06,01,01,44,13.10
2014,06,01,01,45,13.10
2014,06,01,01,46,13.00
2014,06,01,01,47,13.00
2014,06,01,01,48,12.90
2014,06,01,01,49,12.90
2014,06,01,01,50,12.80
2014,06,01,01,51,12.80
2014,06,01,01,52,12.80
2014,06,01,01,53,12.70
2014,06,01,01,54,12.70
2014,06,01,01,55,12.60
2014,06,01,01,56,12.60
2014,06,01,01,57,12.50
2014,06,01,01,58,12.50
2014,06,01,01,59,12.50
2014,06,01,02,00,12.40
2014,06,01,02,01,12.40
2014,06,01,02,02,12.30
2014,06,01,02,03,12.30
2014,06,01,02,04,12.20
2014,06,01,02,05,12.20
2014,06,01,02,06,12.10
2014,06,01,02,07,12.10
2014,06,01,02,08,12.10
2014,06,01,02,09,12.00
2014,06,01,02,10,12.00
2014,06,01,02,11,12.00
2014,06,01,02,12,11.90
2014,06,01,02,13,11.90
2014,06,01,02,14,11.90
2014,06,01,02,15,11.90
2014,06,01,02,16,11.80
2014,06,01,02,17,11.80
2014,06,01,02,18,11.80
2014,06,01,02,19,11.80
2014,06,01,02,20,11.70
2014,06,01,02,21,11.70
2014,06,01,02,22,11.70
2014,06,01,02,23,11.70
2014,06,01,02,24,11.60
2014,06,01,02,25,11.60
2014,06,01,02,26,11.50
2014,06,01,02,27,11.50
2014,06,01,02,28,11.40
2014,06,01,02,29,11.40
2014,06,01,02,30,11.40
2014,06,01,02,31,11.40
2014,06,01,02,32,11.30
2014,06,01,02,33,11.30
2014,06,01,02,34,11.30
2014,06,01,02,35,11.30
2014,06,01,02,36,11.20
2014,06,01,02,37,11.20
2014,06,01,02,38,11.20
2014,06,01,02,39,11.20
2014,06,01,02,40,11.10
2014,06,01,02,41,11.10
2014,06,01,02,42,11.10
2014,06,01,02,43,11.10
2014,06,01,02,44,11.00
2014,06,01,02,45,11.00
2014,06,01,02,46,11.00
2014,06,01,02,47,11.00
2014,06,01,02,48,10.90
2014,06,01,02,49,10.90
2014,06,01,02,50,10.90
2014,06,01,02,51,10.90
2014,06,01,02,52,10.80
2014,06,01,02,53,10.80
2014,06,01,02,54,10.80
2014,06,01,02,55,10.80
2014,06,01,02,56,10.80
2014,06,01,02,57,10.70
2014,06,01,02,58,10.70
2014,06,01,02,59,10.70
2014,06,01,03,00,10.70
2014,06,01,03,01,10.60
2014,06,01,03,02,10.60
2014,06,01,03,03,10.60
2014,06,01,03,04,10.60
2014,06,01,03,05,10.60
2014,06,01,03,06,10.60
2014,06,01,03,07,10.60
2014,06,01,03,08,10.60
2014,06,01,03,09,10.50
2014,06,01,03,10,10.50
2014,06,01,03,11,10.50
2014,06,01,03,12,10.50
2014,06,01,03,13,10.50
2014,06,01,03,14,10.50
2014,06,01,03,15,10.50
2014,06,01,03,16,10.40
2014,06,01,03,17,10.40
2014,06,01,03,18,10.40
2014,06,01,03,19,10.40
2014,06,01,03,20,10.40
2014,06,01,03,21,10.40
2014,06,01,03,22,10.40
2014,06,01,03,23,10.30
2014,06,01,03,24,10.30
2014,06,01,03,25,10.30
2014,06,01,03,26,10.30
2014,06,01,03,27,10.30
2014,06,01,03,28,10.20
2014,06,01,03,29,10.20
2014,06,01,03,30,10.20
2014,06,01,03,31,10.20
2014,06,01,03,32,10.10
2014,06,01,03,33,10.10
2014,06,01,03,34,10.10
2014,06,01,03,35,10.10
2014,06,01,03,36,10.10
2014,06,01,03,37,10.00
2014,06,01,03,38,10.00
2014,06,01,03,39,10.00
2014,06,01,03,40,10.00
2014,06,01,03,41,9.90
2014,06,01,03,42,9.90
2014,06,01,03,43,9.90
2014,06,01,03,44,9.90
2014,06,01,03,45,9.90
2014,06,01,03,46,9.80
2014,06,01,03,47,9.80
2014,06,01,03,48,9.80
2014,06,01,03,49,9.80
2014,06,01,03,50,9.80
2014,06,01,03,51,9.80
2014,06,01,03,52,9.80
2014,06,01,03,53,9.80
2014,06,01,03,54,9.70
2014,06,01,03,55,9.70
2014,06,01,03,56,9.70
2014,06,01,03,57,9.70
2014,06,01,03,58,9.70
2014,06,01,03,59,9.70
2014,06,01,04,00,9.60
2014,06,01,04,01,9.60
2014,06,01,04,02,9.60
2014,06,01,04,03,9.60
2014,06,01,04,04,9.60
2014,06,01,04,05,9.60
2014,06,01,04,06,9.50
2014,06,01,04,07,9.50
2014,06,01,04,08,9.50
2014,06,01,04,09,9.40
2014,06,01,04,10,9.40
2014,06,01,04,11,9.40
2014,06,01,04,12,9.40
2014,06,01,04,13,9.40
2014,06,01,04,14,9.40
2014,06,01,04,15,9.30
2014,06,01,04,16,9.30
2014,06,01,04,17,9.30
2014,06,01,04,18,9.30
2014,06,01,04,19,9.30
2014,06,01,04,20,9.20
2014,06,01,04,21,9.20
2014,06,01,04,22,9.20
2014,06,01,04,23,9.20
2014,06,01,04,24,9.20
2014,06,01,04,25,9.20
2014,06,01,04,26,9.20
2014,06,01,04,27,9.20
2014,06,01,04,28,9.20
2014,06,01,04,29,9.10
2014,06,01,04,30,9.10
2014,06,01,04,31,9.10
2014,06,01,04,32,9.10
2014,06,01,04,33,9.10
2014,06,01,04,34,9.10
2014,06,01,04,35,9.00
2014,06,01,04,36,9.00
2014,06,01,04,37,9.00
2014,06,01,04,38,8.90
2014,06,01,04,39,8.90
2014,06,01,04,40,8.90
2014,06,01,04,41,8.90
2014,06,01,04,42,8.90
2014,06,01,04,43,8.90
2014,06,01,04,44,8.80
2014,06,01,04,45,8.80
2014,06,01,04,46,8.80
2014,06,01,04,47,8.80
2014,06,01,04,48,8.80
2014,06,01,04,49,8.70
2014,06,01,04,50,8.70
2014,06,01,04,51,8.70
2014,06,01,04,52,8.70
2014,06,01,04,53,8.70
2014,06,01,04,54,8.70
2014,06,01,04,55,8.70
2014,06,01,04,56,8.60
2014,06,01,04,57,8.60
2014,06,01,04,58,8.60
2014,06,01,04,59,8.60
2014,06,01,05,00,8.60
2014,06,01,05,01,8.60
2014,06,01,05,02,8.60
2014,06,01,05,03,8.60
2014,06,01,05,04,8.50
2014,06,01,05,05,8.50
2014,06,01,05,06,8.50
2014,06,01,05,07,8.50
2014,06,01,05,08,8.50
2014,06,01,05,09,8.50
2014,06,01,05,10,8.40
2014,06,01,05,11,8.40
2014,06,01,05,12,8.40
2014,06,01,05,13,8.40
2014,06,01,05,14,8.30
2014,06,01,05,15,8.30
2014,06,01,05,16,8.30
2014,06,01,05,17,8.30
2014,06,01,05,18,8.30
2014,06,01,05,19,8.30
2014,06,01,05,20,8.30
2014,06,01,05,21,8.30
2014,06,01,05,22,8.20
2014,06,01,05,23,8.20
2014,06,01,05,24,8.20
2014,06,01,05,25,8.20
2014,06,01,05,26,8.20
2014,06,01,05,27,8.20
2014,06,01,05,28,8.20
2014,06,01,05,29,8.20
2014,06,01,05,30,8.20
2014,06,01,05,31,8.10
2014,06,01,05,32,8.10
2014,06,01,05,33,8.10
2014,06,01,05,34,8.10
2014,06,01,05,35,8.10
2014,06,01,05,36,8.10
2014,06,01,05,37,8.10
2014,06,01,05,38,8.10
2014,06,01,05,39,8.10
2014,06,01,05,40,8.10
2014,06,01,05,41,8.00
2014,06,01,05,42,8.00
2014,06,01,05,43,8.00
2014,06,01,05,44,8.00
2014,06,01,05,45,8.00
2014,06,01,05,46,8.00
2014,06,01,05,47,8.00
2014,06,01,05,48,7.90
2014,06,01,05,49,7.90
2014,06,01,05,50,7.90
2014,06,01,05,51,7.90
2014,06,01,05,52,7.90
2014,06,01,05,53,7.90
2014,06,01,05,54,7.90
2014,06,01,05,55,7.90
2014,06,01,05,56,7.90
2014,06,01,05,57,7.90
2014,06,01,05,58,7.80
2014,06,01,05,59,7.80
2014,06,01,06,00,7.80
2014,06,01,06,01,7.80
2014,06,01,06,02,7.80
2014,06,01,06,03,7.80
2014,06,01,06,04,7.80
2014,06,01,06,05,7.80
2014,06,01,06,06,7.80
2014,06,01,06,07,7.80
2014,06,01,06,08,7.80
2014,06,01,06,09,7.80
2014,06,01,06,10,7.80
2014,06,01,06,11,7.80
2014,06,01,06,12,7.80
2014,06,01,06,13,7.80
2014,06,01,06,14,7.80
2014,06,01,06,15,7.80
2014,06,01,06,16,7.80
2014,06,01,06,17,7.80
2014,06,01,06,18,7.80
2014,06,01,06,19,7.80
2014,06,01,06,20,7.80
2014,06,01,06,21,7.80
2014,06,01,06,22,7.80
2014,06,01,06,23,7.80
2014,06,01,06,24,7.80
2014,06,01,06,25,7.80
2014,06,01,06,26,7.80
2014,06,01,06,27,7.80
2014,06,01,06,28,7.80
2014,06,01,06,29,7.90
2014,06,01,06,30,7.90
2014,06,01,06,31,7.90
2014,06,01,06,32,7.90
2014,06,01,06,33,7.90
2014,06,01,06,34,7.90
2014,06,01,06,35,7.90
2014,06,01,06,36,7.90
2014,06,01,06,37,7.90
2014,06,01,06,38,7.90
2014,06,01,06,39,7.90
2014,06,01,06,40,7.90
2014,06,01,06,41,8.00
2014,06,01,06,42,8.00
2014,06,01,06,43,8.00
2014,06,01,06,44,8.10
2014,06,01,06,45,8.10
2014,06,01,06,46,8.20
2014,06,01,06,47,8.20
2014,06,01,06,48,8.30
2014,06,01,06,49,8.30
2014,06,01,06,50,8.30
2014,06,01,06,51,8.40
2014,06,01,06,52,8.40
2014,06,01,06,53,8.50
2014,06,01,06,54,8.50
2014,06,01,06,55,8.60
2014,06,01,06,56,8.60
2014,06,01,06,57,8.70
2014,06,01,06,58,8.70
2014,06,01,06,59,8.70
2014,06,01,07,00,8.80
2014,06,01,07,01,8.80
2014,06,01,07,02,8.90
2014,06,01,07,03,9.00
2014,06,01,07,04,9.10
2014,06,01,07,05,9.10
2014,06,01,07,06,9.20
2014,06,01,07,07,9.20
2014,06,01,07,08,9.20
2014,06,01,07,09,9.20
2014,06,01,07,10,9.30
2014,06,01,07,11,9.30
2014,06,01,07,12,9.30
2014,06,01,07,13,9.30
2014,06,01,07,14,9.40
2014,06,01,07,15,9.40
2014,06,01,07,16,9.50
2014,06,01,07,17,9.50
2014,06,01,07,18,9.60
2014,06,01,07,19,9.60
2014,06,01,07,20,9.70
2014,06,01,07,21,9.70
2014,06,01,07,22,9.80
2014,06,01,07,23,9.90
2014,06,01,07,24,10.00
2014,06,01,07,25,10.00
2014,06,01,07,26,10.10
2014,06,01,07,27,10.20
2014,06,01,07,28,10.20
2014,06,01,07,29,10.30
2014,06,01,07,30,10.30
2014,06,01,07,31,10.40
2014,06,01,07,32,10.40
2014,06,01,07,33,10.50
2014,06,01,07,34,10.60
2014,06,01,07,35,10.70
2014,06,01,07,36,10.70
2014,06,01,07,37,10.80
2014,06,01,07,38,10.80
2014,06,01,07,39,10.90
2014,06,01,07,40,10.90
2014,06,01,07,41,11.00
2014,06,01,07,42,11.10
2014,06,01,07,43,11.10
2014,06,01,07,44,11.20
2014,06,01,07,45,11.20
2014,06,01,07,46,11.20
2014,06,01,07,47,11.30
2014,06,01,07,48,11.30
2014,06,01,07,49,11.30
2014,06,01,07,50,11.40
2014,06,01,07,51,11.50
2014,06,01,07,52,11.50
2014,06,01,07,53,11.60
2014,06,01,07,54,11.60
2014,06,01,07,55,11.70
2014,06,01,07,56,11.70
2014,06,01,07,57,11.70
2014,06,01,07,58,11.80
2014,06,01,07,59,11.80
2014,06,01,08,00,11.80
2014,06,01,08,01,11.90
2014,06,01,08,02,11.90
2014,06,01,08,03,11.90
2014,06,01,08,04,11.90
2014,06,01,08,05,12.00
2014,06,01,08,06,12.00
2014,06,01,08,07,12.10
2014,06,01,08,08,12.10
2014,06,01,08,09,12.20
2014,06,01,08,10,12.20
2014,06,01,08,11,12.20
2014,06,01,08,12,12.30
2014,06,01,08,13,12.30
2014,06,01,08,14,12.40
2014,06,01,08,15,12.50
2014,06,01,08,16,12.50
2014,06,01,08,17,12.60
2014,06,01,08,18,12.60
2014,06,01,08,19,12.70
2014,06,01,08,20,12.70
2014,06,01,08,21,12.80
2014,06,01,08,22,12.80
2014,06,01,08,23,12.80
2014,06,01,08,24,12.80
2014,06,01,08,25,12.80
2014,06,01,08,26,12.90
2014,06,01,08,27,12.90
2014,06,01,08,28,13.00
2014,06,01,08,29,13.10
2014,06,01,08,30,13.20
2014,06,01,08,31,13.30
2014,06,01,08,32,13.40
2014,06,01,08,33,13.50
2014,06,01,08,34,13.60
2014,06,01,08,35,13.60
2014,06,01,08,36,13.60
2014,06,01,08,37,13.60
2014,06,01,08,38,13.60
2014,06,01,08,39,13.60
2014,06,01,08,40,13.60
2014,06,01,08,41,13.60
2014,06,01,08,42,13.60
2014,06,01,08,43,13.70
2014,06,01,08,44,13.70
2014,06,01,08,45,13.70
2014,06,01,08,46,13.70
2014,06,01,08,47,13.70
2014,06,01,08,48,13.80
2014,06,01,08,49,13.80
2014,06,01,08,50,13.80
2014,06,01,08,51,13.80
2014,06,01,08,52,13.90
2014,06,01,08,53,14.00
2014,06,01,08,54,14.00
2014,06,01,08,55,14.10
2014,06,01,08,56,14.10
2014,06,01,08,57,14.10
2014,06,01,08,58,14.20
2014,06,01,08,59,14.20
2014,06,01,09,00,14.20
2014,06,01,09,01,14.30
2014,06,01,09,02,14.30
2014,06,01,09,03,14.30
2014,06,01,09,04,14.30
2014,06,01,09,05,14.40
2014,06,01,09,06,14.40
2014,06,01,09,07,14.50
2014,06,01,09,08,14.60
2014,06,01,09,09,14.60
2014,06,01,09,10,14.70
2014,06,01,09,11,14.70
2014,06,01,09,12,14.80
2014,06,01,09,13,14.80
2014,06,01,09,14,14.80
2014,06,01,09,15,14.90
2014,06,01,09,16,14.90
2014,06,01,09,17,15.00
2014,06,01,09,18,15.00
2014,06,01,09,19,15.10
2014,06,01,09,20,15.20
2014,06,01,09,21,15.20
2014,06,01,09,22,15.20
2014,06,01,09,23,15.30
2014,06,01,09,24,15.30
2014,06,01,09,25,15.30
2014,06,01,09,26,15.40
2014,06,01,09,27,15.40
2014,06,01,09,28,15.40
2014,06,01,09,29,15.50
2014,06,01,09,30,15.50
2014,06,01,09,31,15.50
2014,06,01,09,32,15.60
2014,06,01,09,33,15.60
2014,06,01,09,34,15.60
2014,06,01,09,35,15.60
2014,06,01,09,36,15.70
2014,06,01,09,37,15.70
2014,06,01,09,38,15.80
2014,06,01,09,39,15.80
2014,06,01,09,40,15.80
2014,06,01,09,41,15.90
2014,06,01,09,42,16.00
2014,06,01,09,43,16.00
2014,06,01,09,44,16.10
2014,06,01,09,45,16.20
2014,06,01,09,46,16.20
2014,06,01,09,47,16.30
2014,06,01,09,48,16.30
2014,06,01,09,49,16.40
2014,06,01,09,50,16.40
2014,06,01,09,51,16.50
2014,06,01,09,52,16.50
2014,06,01,09,53,16.50
2014,06,01,09,54,16.50
2014,06,01,09,55,16.50
2014,06,01,09,56,16.60
2014,06,01,09,57,16.60
2014,06,01,09,58,16.70
2014,06,01,09,59,16.70
2014,06,01,10,00,16.80
2014,06,01,10,01,16.80
2014,06,01,10,02,16.80
2014,06,01,10,03,16.90
2014,06,01,10,04,17.00
2014,06,01,10,05,17.00
2014,06,01,10,06,17.10
2014,06,01,10,07,17.10
2014,06,01,10,08,17.20
2014,06,01,10,09,17.30
2014,06,01,10,10,17.30
2014,06,01,10,11,17.30
2014,06,01,10,12,17.30
2014,06,01,10,13,17.30
2014,06,01,10,14,17.30
2014,06,01,10,15,17.40
2014,06,01,10,16,17.40
2014,06,01,10,17,17.50
2014,06,01,10,18,17.50
2014,06,01,10,19,17.60
2014,06,01,10,20,17.60
2014,06,01,10,21,17.70
2014,06,01,10,22,17.80
2014,06,01,10,23,17.80
2014,06,01,10,24,17.80
2014,06,01,10,25,17.90
2014,06,01,10,26,17.90
2014,06,01,10,27,18.00
2014,06,01,10,28,18.10
2014,06,01,10,29,18.10
2014,06,01,10,30,18.10
2014,06,01,10,31,18.00
2014,06,01,10,32,18.00
2014,06,01,10,33,17.90
2014,06,01,10,34,17.90
2014,06,01,10,35,17.90
2014,06,01,10,36,17.90
2014,06,01,10,37,17.90
2014,06,01,10,38,18.00
2014,06,01,10,39,18.00
2014,06,01,10,40,18.10
2014,06,01,10,41,18.10
2014,06,01,10,42,18.20
2014,06,01,10,43,18.30
2014,06,01,10,44,18.40
2014,06,01,10,45,18.50
2014,06,01,10,46,18.70
2014,06,01,10,47,18.80
2014,06,01,10,48,18.90
2014,06,01,10,49,19.00
2014,06,01,10,50,19.00
2014,06,01,10,51,19.00
2014,06,01,10,52,19.00
2014,06,01,10,53,18.90
2014,06,01,10,54,18.90
2014,06,01,10,55,18.90
2014,06,01,10,56,18.90
2014,06,01,10,57,18.90
2014,06,01,10,58,18.90
2014,06,01,10,59,18.90
2014,06,01,11,00,19.00
2014,06,01,11,01,19.00
2014,06,01,11,02,19.10
2014,06,01,11,03,19.20
2014,06,01,11,04,19.20
2014,06,01,11,05,19.20
2014,06,01,11,06,19.20
2014,06,01,11,07,19.30
2014,06,01,11,08,19.40
2014,06,01,11,09,19.60
2014,06,01,11,10,19.60
2014,06,01,11,11,19.70
2014,06,01,11,12,19.70
2014,06,01,11,13,19.70
2014,06,01,11,14,19.70
2014,06,01,11,15,19.70
2014,06,01,11,16,19.60
2014,06,01,11,17,19.60
2014,06,01,11,18,19.60
2014,06,01,11,19,19.60
2014,06,01,11,20,19.60
2014,06,01,11,21,19.60
2014,06,01,11,22,19.70
2014,06,01,11,23,19.70
2014,06,01,11,24,19.80
2014,06,01,11,25,19.80
2014,06,01,11,26,19.90
2014,06,01,11,27,19.90
2014,06,01,11,28,19.90
2014,06,01,11,29,20.00
2014,06,01,11,30,20.10
2014,06,01,11,31,20.20
2014,06,01,11,32,20.30
2014,06,01,11,33,20.40
2014,06,01,11,34,20.50
2014,06,01,11,35,20.50
2014,06,01,11,36,20.60
2014,06,01,11,37,20.60
2014,06,01,11,38,20.70
2014,06,01,11,39,20.80
2014,06,01,11,40,20.80
2014,06,01,11,41,20.80
2014,06,01,11,42,20.80
2014,06,01,11,43,20.90
2014,06,01,11,44,21.00
2014,06,01,11,45,21.20
2014,06,01,11,46,21.30
2014,06,01,11,47,21.40
2014,06,01,11,48,21.60
2014,06,01,11,49,21.70
2014,06,01,11,50,21.80
2014,06,01,11,51,21.90
2014,06,01,11,52,22.00
2014,06,01,11,53,22.10
2014,06,01,11,54,22.00
2014,06,01,11,55,21.80
2014,06,01,11,56,21.70
2014,06,01,11,57,21.70
2014,06,01,11,58,21.70
2014,06,01,11,59,21.70
2014,06,01,12,00,21.90
2014,06,01,12,01,22.00
2014,06,01,12,02,22.10
2014,06,01,12,03,22.20
2014,06,01,12,04,22.20
2014,06,01,12,05,22.30
2014,06,01,12,06,22.40
2014,06,01,12,07,22.40
2014,06,01,12,08,22.50
2014,06,01,12,09,22.50
2014,06,01,12,10,22.60
2014,06,01,12,11,22.70
2014,06,01,12,12,22.70
2014,06,01,12,13,22.80
2014,06,01,12,14,23.00
2014,06,01,12,15,22.90
2014,06,01,12,16,22.80
2014,06,01,12,17,22.70
2014,06,01,12,18,22.60
2014,06,01,12,19,22.50
2014,06,01,12,20,22.40
2014,06,01,12,21,22.30
2014,06,01,12,22,22.30
2014,06,01,12,23,22.20
2014,06,01,12,24,22.20
2014,06,01,12,25,22.20
2014,06,01,12,26,22.20
2014,06,01,12,27,22.20
2014,06,01,12,28,22.30
2014,06,01,12,29,22.40
2014,06,01,12,30,22.50
2014,06,01,12,31,22.50
2014,06,01,12,32,22.60
2014,06,01,12,33,22.60
2014,06,01,12,34,22.60
2014,06,01,12,35,22.60
2014,06,01,12,36,22.60
2014,06,01,12,37,22.50
2014,06,01,12,38,22.50
2014,06,01,12,39,22.50
2014,06,01,12,40,22.60
2014,06,01,12,41,22.70
2014,06,01,12,42,22.70
2014,06,01,12,43,22.70
2014,06,01,12,44,22.70
2014,06,01,12,45,22.70
2014,06,01,12,46,22.80
2014,06,01,12,47,22.90
2014,06,01,12,48,23.00
2014,06,01,12,49,23.20
2014,06,01,12,50,23.30
2014,06,01,12,51,23.30
2014,06,01,12,52,23.20
2014,06,01,12,53,23.10
2014,06,01,12,54,23.00
2014,06,01,12,55,22.90
2014,06,01,12,56,22.80
2014,06,01,12,57,22.80
2014,06,01,12,58,22.90
2014,06,01,12,59,23.00
2014,06,01,13,00,23.10
2014,06,01,13,01,23.20
2014,06,01,13,02,23.30
2014,06,01,13,03,23.40
2014,06,01,13,04,23.50
2014,06,01,13,05,23.50
2014,06,01,13,06,23.50
2014,06,01,13,07,23.50
2014,06,01,13,08,23.50
2014,06,01,13,09,23.50
2014,06,01,13,10,23.60
2014,06,01,13,11,23.60
2014,06,01,13,12,23.60
2014,06,01,13,13,23.60
2014,06,01,13,14,23.60
2014,06,01,13,15,23.70
2014,06,01,13,16,23.70
2014,06,01,13,17,23.60
2014,06,01,13,18,23.60
2014,06,01,13,19,23.60
2014,06,01,13,20,23.60
2014,06,01,13,21,23.60
2014,06,01,13,22,23.60
2014,06,01,13,23,23.60
2014,06,01,13,24,23.50
2014,06,01,13,25,23.50
2014,06,01,13,26,23.40
2014,06,01,13,27,23.30
2014,06,01,13,28,23.30
2014,06,01,13,29,23.30
2014,06,01,13,30,23.40
2014,06,01,13,31,23.40
2014,06,01,13,32,23.50
2014,06,01,13,33,23.60
2014,06,01,13,34,23.70
2014,06,01,13,35,23.80
2014,06,01,13,36,23.90
2014,06,01,13,37,23.90
2014,06,01,13,38,23.90
2014,06,01,13,39,23.90
2014,06,01,13,40,23.80
2014,06,01,13,41,23.80
2014,06,01,13,42,23.80
2014,06,01,13,43,23.80
2014,06,01,13,44,23.80
2014,06,01,13,45,23.80
2014,06,01,13,46,23.90
2014,06,01,13,47,23.90
2014,06,01,13,48,23.90
2014,06,01,13,49,23.80
2014,06,01,13,50,23.80
2014,06,01,13,51,23.80
2014,06,01,13,52,23.80
2014,06,01,13,53,23.70
2014,06,01,13,54,23.70
2014,06,01,13,55,23.70
2014,06,01,13,56,23.70
2014,06,01,13,57,23.80
2014,06,01,13,58,23.80
2014,06,01,13,59,23.80
2014,06,01,14,00,23.90
2014,06,01,14,01,23.90
2014,06,01,14,02,23.80
2014,06,01,14,03,23.80
2014,06,01,14,04,23.80
2014,06,01,14,05,23.90
2014,06,01,14,06,23.90
2014,06,01,14,07,23.90
2014,06,01,14,08,23.80
2014,06,01,14,09,23.80
2014,06,01,14,10,23.80
2014,06,01,14,11,23.80
2014,06,01,14,12,23.90
2014,06,01,14,13,23.90
2014,06,01,14,14,23.90
2014,06,01,14,15,23.90
2014,06,01,14,16,23.90
2014,06,01,14,17,24.00
2014,06,01,14,18,24.00
2014,06,01,14,19,23.90
2014,06,01,14,20,23.80
2014,06,01,14,21,23.80
2014,06,01,14,22,23.80
2014,06,01,14,23,23.80
2014,06,01,14,24,23.80
2014,06,01,14,25,23.80
2014,06,01,14,26,23.80
2014,06,01,14,27,23.80
2014,06,01,14,28,23.80
2014,06,01,14,29,23.80
2014,06,01,14,30,23.80
2014,06,01,14,31,23.80
2014,06,01,14,32,23.80
2014,06,01,14,33,23.90
2014,06,01,14,34,23.80
2014,06,01,14,35,23.80
2014,06,01,14,36,23.80
2014,06,01,14,37,23.80
2014,06,01,14,38,23.80
2014,06,01,14,39,23.80
2014,06,01,14,40,23.80
2014,06,01,14,41,23.80
2014,06,01,14,42,23.80
2014,06,01,14,43,23.80
2014,06,01,14,44,23.80
2014,06,01,14,45,23.80
2014,06,01,14,46,23.80
2014,06,01,14,47,23.80
2014,06,01,14,48,23.80
2014,06,01,14,49,23.90
2014,06,01,14,50,23.90
2014,06,01,14,51,24.00
2014,06,01,14,52,24.00
2014,06,01,14,53,24.10
2014,06,01,14,54,24.10
2014,06,01,14,55,24.10
2014,06,01,14,56,24.10
2014,06,01,14,57,24.10
2014,06,01,14,58,24.10
2014,06,01,14,59,24.10
2014,06,01,15,00,24.00
2014,06,01,15,01,24.10
2014,06,01,15,02,24.10
2014,06,01,15,03,24.10
2014,06,01,15,04,24.10
2014,06,01,15,05,24.10
2014,06,01,15,06,24.20
2014,06,01,15,07,24.20
2014,06,01,15,08,24.20
2014,06,01,15,09,24.20
2014,06,01,15,10,24.20
2014,06,01,15,11,24.10
2014,06,01,15,12,24.10
2014,06,01,15,13,24.10
2014,06,01,15,14,24.20
2014,06,01,15,15,24.30
2014,06,01,15,16,24.30
2014,06,01,15,17,24.40
2014,06,01,15,18,24.40
2014,06,01,15,19,24.40
2014,06,01,15,20,24.40
2014,06,01,15,21,24.40
2014,06,01,15,22,24.50
2014,06,01,15,23,24.50
2014,06,01,15,24,24.50
2014,06,01,15,25,24.60
2014,06,01,15,26,24.70
2014,06,01,15,27,24.70
2014,06,01,15,28,24.60
2014,06,01,15,29,24.60
2014,06,01,15,30,24.50
2014,06,01,15,31,24.50
2014,06,01,15,32,24.50
2014,06,01,15,33,24.40
2014,06,01,15,34,24.40
2014,06,01,15,35,24.40
2014,06,01,15,36,24.40
2014,06,01,15,37,24.40
2014,06,01,15,38,24.50
2014,06,01,15,39,24.50
2014,06,01,15,40,24.50
2014,06,01,15,41,24.50
2014,06,01,15,42,24.50
2014,06,01,15,43,24.40
2014,06,01,15,44,24.30
2014,06,01,15,45,24.30
2014,06,01,15,46,24.30
2014,06,01,15,47,24.30
2014,06,01,15,48,24.20
2014,06,01,15,49,24.20
2014,06,01,15,50,24.20
2014,06,01,15,51,24.20
2014,06,01,15,52,24.30
2014,06,01,15,53,24.30
2014,06,01,15,54,24.30
2014,06,01,15,55,24.30
2014,06,01,15,56,24.30
2014,06,01,15,57,24.40
2014,06,01,15,58,24.30
2014,06,01,15,59,24.40
2014,06,01,16,00,24.40
2014,06,01,16,01,24.40
2014,06,01,16,02,24.40
2014,06,01,16,03,24.40
2014,06,01,16,04,24.40
2014,06,01,16,05,24.40
2014,06,01,16,06,24.50
2014,06,01,16,07,24.50
2014,06,01,16,08,24.50
2014,06,01,16,09,24.50
2014,06,01,16,10,24.40
2014,06,01,16,11,24.40
2014,06,01,16,12,24.40
2014,06,01,16,13,24.40
2014,06,01,16,14,24.40
2014,06,01,16,15,24.40
2014,06,01,16,16,24.40
2014,06,01,16,17,24.40
2014,06,01,16,18,24.40
2014,06,01,16,19,24.40
2014,06,01,16,20,24.40
2014,06,01,16,21,24.40
2014,06,01,16,22,24.40
2014,06,01,16,23,24.50
2014,06,01,16,24,24.50
2014,06,01,16,25,24.40
2014,06,01,16,26,24.40
2014,06,01,16,27,24.40
2014,06,01,16,28,24.50
2014,06,01,16,29,24.50
2014,06,01,16,30,24.50
2014,06,01,16,31,24.50
2014,06,01,16,32,24.50
2014,06,01,16,33,24.50
2014,06,01,16,34,24.50
2014,06,01,16,35,24.60
2014,06,01,16,36,24.60
2014,06,01,16,37,24.70
2014,06,01,16,38,24.70
2014,06,01,16,39,24.70
2014,06,01,16,40,24.70
2014,06,01,16,41,24.60
2014,06,01,16,42,24.60
2014,06,01,16,43,24.60
2014,06,01,16,44,24.60
2014,06,01,16,45,24.60
2014,06,01,16,46,24.60
2014,06,01,16,47,24.60
2014,06,01,16,48,24.60
2014,06,01,16,49,24.60
2014,06,01,16,50,24.60
2014,06,01,16,51,24.50
2014,06,01,16,52,24.50
2014,06,01,16,53,24.40
2014,06,01,16,54,24.40
2014,06,01,16,55,24.40
2014,06,01,16,56,24.40
2014,06,01,16,57,24.40
2014,06,01,16,58,24.40
2014,06,01,16,59,24.40
2014,06,01,17,00,24.30
2014,06,01,17,01,24.30
2014,06,01,17,02,24.30
2014,06,01,17,03,24.30
2014,06,01,17,04,24.30
2014,06,01,17,05,24.30
2014,06,01,17,06,24.30
2014,06,01,17,07,24.30
2014,06,01,17,08,24.30
2014,06,01,17,09,24.30
2014,06,01,17,10,24.30
2014,06,01,17,11,24.30
2014,06,01,17,12,24.30
2014,06,01,17,13,24.20
2014,06,01,17,14,24.20
2014,06,01,17,15,24.20
2014,06,01,17,16,24.10
2014,06,01,17,17,24.10
2014,06,01,17,18,24.10
2014,06,01,17,19,24.00
2014,06,01,17,20,24.00
2014,06,01,17,21,24.00
2014,06,01,17,22,24.00
2014,06,01,17,23,24.00
2014,06,01,17,24,23.90
2014,06,01,17,25,23.90
2014,06,01,17,26,23.80
2014,06,01,17,27,23.80
2014,06,01,17,28,23.70
2014,06,01,17,29,23.70